Airfield :
LOGIN :

Register | Disclaimer

   EN    FR    IT 

 










Legend :    VFR   Marginal VFR   IFR   Intensive IFR   Very Intensive IFR
Visi :
Ceiling :
>= 8 km
>= 3000ft
5 to 8 km
1000 to 3000 ft
1500m to 5 km
500 to 1000 ft
800 to 1500m
200 to 500 ft
< 800m
< 200 ft
Symbols :   Thunderstorms  Fog  Heavy snow  Heavy precipitations  Wind > 20 kt
SIGMETs :     Misc.  Thunderstorms  Icing  Turbulence  Mountain Waves  Volcanic Ashes







- Airport Elevation : 26 ft


ETNT - Wittmundhaven AB

CURRENT METAR :
  • 232320Z 22012KT 9999 SCT040 07/04 Q1006 BLU+

EXPIRED METARs :
  • 232220Z 22010KT 9999 SCT040 07/04 Q1005 BLU+
  • 232120Z 22011KT 9999 07/04 Q1005 BLU+

TAF TAF ETNT
Valid from the 24 at 00:00 until the 24 at 09:00 UTC


232310Z 2400/2409 20012KT 9999 NSW SCT040 BKN100
BECMG 2404/2406 19010KT 7000 -RA SCT010 BKN040
TEMPO 2407/2409 20008KT 3000 RA BKN008 BKN025 BY ETGL
No reported NOTAMs for that airfield.



MET'MAP, your aeronautical weather chart ! - Copyright ORBIFLY December 2007 - Disclaimer

ORBIFLY MET'MAP TEAM :

Programming & Development : Alexandra Zaïnal
Concept & Development : Baudouin d'Aumeries
Co-Development & Prog : Marc-Olivier Méhu
Technical & hardware support : Manuel Goepfert

Contact : metmap@orbifly.com




SOURCES & CREDITS :

   NOAA